This is the latest recevied weather packets stored in our database for station/object K2ATL. If no packets are shown the sender has not sent any weather packets the latest 10 day(s).
| Time | Temp. | Humidity | Pressure | Rain* | Wind** | Luminosity | Snow |
|---|---|---|---|---|---|---|---|
| 1777595739 | 13.89° C | 62% | 1097.4 hPa | 0 mm | - | 0 W/m² | - |
| 1777595435 | 13.89° C | 61% | 1097.5 hPa | 0 mm | - | 1 W/m² | - |
| 1777595131 | 13.33° C | 61% | 1097.3 hPa | 0 mm | - | 2 W/m² | - |
| 1777594827 | 13.89° C | 61% | 1097.2 hPa | 0 mm | - | 4 W/m² | - |
| 1777594524 | 13.89° C | 62% | 1097.4 hPa | 0 mm | - | 6 W/m² | - |
| 1777594220 | 13.89° C | 61% | 1097.1 hPa | 0 mm | - | 9 W/m² | - |
| 1777593916 | 13.89° C | 61% | 1097 hPa | 0 mm | - | 11 W/m² | - |
| 1777593613 | 13.89° C | 61% | 1096.9 hPa | 0 mm | - | 16 W/m² | - |
| 1777593309 | 14.44° C | 61% | 1096.9 hPa | 0 mm | - | 20 W/m² | - |
| 1777593003 | 14.44° C | 60% | 1096.9 hPa | 0 mm | - | 29 W/m² | - |
| 1777592697 | 14.44° C | 61% | 1096.6 hPa | 0 mm | - | 31 W/m² | - |
| 1777592393 | 15° C | 59% | 1096.8 hPa | 0 mm | - | 40 W/m² | - |
| 1777592088 | 15° C | 59% | 1096.6 hPa | 0 mm | - | 45 W/m² | - |
| 1777591786 | 15° C | 59% | 1096.6 hPa | 0 mm | - | 45 W/m² | - |
| 1777591482 | 15° C | 59% | 1096.6 hPa | 0 mm | - | 68 W/m² | - |
| 1777591178 | 14.44° C | 59% | 1096.6 hPa | 0 mm | - | 64 W/m² | - |
| 1777590872 | 14.44° C | 59% | 1096.5 hPa | 0 mm | - | 54 W/m² | - |
| 1777590570 | 15° C | 62% | 1096.9 hPa | 0 mm | - | 62 W/m² | - |
| 1777590266 | 15° C | 62% | 1096.6 hPa | 0 mm | - | 85 W/m² | - |
| 1777589963 | 15° C | 61% | 1096.5 hPa | 0 mm | - | 95 W/m² | - |
| 1777589660 | 15° C | 59% | 1096.9 hPa | 0 mm | - | 112 W/m² | - |
| 1777589357 | 15° C | 60% | 1096.8 hPa | 0 mm | - | 92 W/m² | - |
| 1777589054 | 15° C | 59% | 1097 hPa | 0 mm | - | 102 W/m² | - |
| 1777588750 | 15° C | 64% | 1096.9 hPa | 0 mm | - | 142 W/m² | - |
| 1777588446 | 15° C | 61% | 1097.1 hPa | 0 mm | - | 120 W/m² | - |
* Rain latest hour (hover to see other rain measurements)
** Current wind speed in m/s (hover to see current wind gust speed)